Starlink 32270

operational
NORAD ID: 60364 Int'l Des: 2024-138 Owner: SPXS Country: US Constellation: starlink
LEOCIRCULAR

About Starlink 32270

Description loading...

Live Position

Loading 3D Globe...

Upcoming Passes

Altitude History

Altitude vs Time

uPlot chart will show altitude changes over time

Two-Line Element Set

1 60364U 24138K 25260.65525419 -.00000238 00000-0 40827-5 0 9999
2 60364 53.1622 33.4478 0001247 77.5451 282.5690 15.30199198 64033
Epoch: Sep 17, 2025 • Age: 23 hours

Current Status

Altitude 491.3 km
Velocity 7.62 km/s
Sub-Earth Point -45.20°S, 38.96°E
Launch Date Aug 4, 2024
Age 1.1 years
Type internet

Technical Details

Classification Payload
Mass 730.00 kg
Dry Mass 700.00 kg
Total Mass 730.00 kg
Length 0.30 m
Diameter 4.10 m
Span 29.00 m
Shape Box + pan
Manufacturer SPXS
Bus Type Starlink V2M
Phase Status In Orbit
Owner/State SPXS/US

Large Constellations

Loading constellations...